Dewpoint
37 37 36 36 34 34 36 38 35 28 27 24 29 32 33 37 40 33 36 45 45 46 45 43 42 41 41 40 40 40 39 38 37 36 36 36 36 37
34 34 34 33 33 33 34 34 29 29 31 22 26 30 31 33 35 28 32 41 43 42 42 40 38 37 37 36 36 36 36 35 36 36 36 36 36 36
32 32 32 33 32 32 32 31 29 28 25 22 23 29 31 31 30 22 31 27 34 39 39 37 35 34 34 34 34 34 33 34 34 35 36 36 37 37
31 32 32 32 30 30 30 29 28 26 22 20 23 27 22 24 18 17 19 15 20 33 34 34 33 33 33 33 33 33 33 33 33 33 33 34 35 36
29 29 29 29 29 30 29 29 28 27 24 22 20 21 19 18 15 13 14 11 10 24 31 31 31 32 32 32 32 33 33 33 32 32 32 32 33 34
25 27 27 27 27 27 29 29 29 29 27 20 18 22 19 16 16 12 11 11 9 9 21 26 31 32 32 32 32 32 32 32 32 32 32 32 33 33
24 25 26 24 24 24 26 26 28 27 26 22 18 16 17 15 13 12 10 11 12 12 11 15 22 25 27 31 31 32 30 30 31 32 32 33 33 33
24 25 24 27 28 25 20 26 28 26 26 25 22 16 16 17 15 12 12 12 8 16 12 10 18 20 21 23 26 28 28 27 29 30 31 30 30 31
25 25 25 25 26 25 28 29 26 27 28 25 24 25 24 20 18 15 14 11 12 18 14 13 16 14 19 17 25 25 25 27 27 28 29 30 30 30
24 24 25 25 25 28 26 25 26 27 28 26 25 24 23 22 21 18 16 17 18 18 17 14 18 15 18 19 23 25 27 28 28 28 29 29 29 29
19 22 23 25 26 26 28 25 25 26 27 29 30 28 28 19 21 23 22 20 21 21 20 21 19 16 17 17 18 24 26 27 27 28 29 29 29 29
16 17 21 21 23 26 26 24 23 24 26 27 27 28 30 30 29 25 24 21 20 18 20 18 18 18 18 17 18 19 19 24 27 27 28 28 28 25
11 13 14 18 20 21 23 26 25 25 24 27 26 27 28 28 28 31 26 22 21 22 21 19 23 21 23 19 17 17 18 17 19 20 22 24 26 27
15 15 16 17 19 20 19 20 23 28 27 24 24 24 24 25 27 28 28 29 30 29 24 27 24 24 22 20 17 17 17 18 18 16 16 19 22 23
8 11 15 16 18 17 21 21 24 24 22 22 21 23 23 24 23 26 27 27 27 27 29 29 26 24 22 21 20 19 18 19 19 18 16 15 15 15
8 6 9 8 12 14 12 9 11 18 22 22 20 24 23 23 23 24 24 24 23 23 23 26 26 26 24 23 21 20 22 21 20 19 19 18 18 17
12 7 7 7 6 4 3 4 6 11 13 18 20 22 21 22 23 24 24 23 21 21 21 22 22 22 22 21 20 21 21 21 20 19 17 16 16 16
6 8 11 11 9 7 5 4 2 4 6 12 15 17 19 20 20 21 21 20 18 18 19 20 20 20 20 21 25 21 21 20 20 18 17 16 16 17
-12 -11 -6 0 3 8 11 9 7 6 5 7 8 12 12 14 12 18 18 17 17 16 17 18 18 17 13 11 14 16 17 20 20 19 19 19 18 18
-14 -15 -14 -14 -8 -2 3 6 8 9 9 9 9 10 10 11 8 9 11 12 13 14 14 15 15 16 13 12 7 13 15 16 16 15 15 16 17 18
-16 -16 -16 -14 -12 -9 -2 4 9 4 4 2 4 7 8 7 6 9 9 12 10 2 -1 6 12 15 14 13 4 3 11 17 16 15 11 11 7 6
-16 -16 -14 -13 -12 -12 -9 -7 2 0 -2 -2 -0 2 7 6 4 6 7 1 2 6 6 0 0 2 -0 5 5 1 2 8 11 15 15 15 9 0
-12 -14 -14 -13 -11 -11 -14 -15 -14 -6 -6 -4 -5 -3 2 4 10 10 5 0 -3 -8 -9 -10 -8 -4 -5 -2 6 -2 -6 -4 5 5 6 10 12 12
Lifted_Index
8 8 8 9 9 9 7 6 4 3 3 4 6 8 9 11 11 12 13 14 14 14 15 16 17 17 16 16 17 17 18 19 19 19 19 18 18 18
10 9 9 10 10 10 9 8 6 5 4 5 6 8 10 11 12 12 13 14 15 15 16 17 18 18 18 18 18 18 19 19 19 19 19 18 18 18
11 11 11 11 11 11 11 10 9 8 6 6 7 9 10 12 13 13 14 15 16 17 18 19 20 20 19 19 20 20 19 19 19 19 19 18 18 18
13 13 13 13 13 12 12 11 11 10 9 8 9 11 12 14 15 15 16 17 18 19 20 21 21 21 21 20 20 20 20 20 20 20 20 19 18 18
16 16 15 15 15 14 14 13 13 12 11 10 12 14 15 16 17 17 18 19 20 21 22 22 21 21 21 21 21 20 20 20 20 20 20 20 20 19
18 18 17 17 17 16 16 15 15 14 13 12 13 15 17 18 18 18 19 20 21 22 22 22 21 21 21 21 21 21 20 20 20 20 20 20 20 20
19 19 19 19 19 19 18 17 17 16 15 14 14 15 17 17 18 18 19 19 20 21 22 22 21 21 21 21 20 20 20 19 19 20 20 20 20 20
20 20 20 21 21 20 20 20 19 18 17 17 16 16 17 17 18 18 19 19 19 21 21 21 21 21 20 20 19 19 19 19 20 20 20 20 20 20
20 20 21 21 21 21 21 21 21 20 20 19 18 18 18 18 18 18 19 19 19 20 20 20 20 20 20 19 19 19 20 20 20 21 21 21 21 21
20 20 20 20 20 21 21 21 21 21 21 21 20 20 19 19 19 19 19 19 19 20 21 20 20 20 19 19 19 20 20 21 21 21 21 21 21 21
19 19 19 19 19 19 20 20 20 20 21 21 21 21 20 20 20 20 20 19 19 20 21 20 20 19 18 18 19 20 20 21 21 21 21 21 21 21
20 20 20 19 19 19 19 19 19 19 19 20 20 20 20 20 21 21 20 19 19 20 20 20 19 19 18 18 19 20 21 21 21 22 22 22 21 21
21 21 21 21 20 20 19 19 18 19 18 18 19 19 19 19 20 20 20 20 20 20 20 19 19 19 18 18 19 21 21 22 22 22 22 22 22 22
23 23 22 22 22 21 20 20 19 19 19 18 18 18 18 18 19 19 19 19 19 20 20 20 20 20 19 19 20 21 22 22 22 23 23 23 23 23
24 24 24 23 23 22 21 21 20 20 19 19 19 19 19 19 19 18 18 19 19 19 20 20 20 21 21 20 21 21 22 22 23 23 23 24 24 24
24 24 23 23 23 22 22 21 21 20 20 20 20 20 20 19 19 19 19 18 18 19 19 20 20 21 21 21 21 22 22 23 23 23 23 24 24 24
21 21 21 21 21 21 21 21 21 21 20 20 20 20 20 20 19 19 19 19 19 19 19 20 20 20 21 21 22 22 22 23 23 23 23 23 24 24
19 19 19 19 20 20 20 20 20 20 20 20 20 20 20 20 19 19 19 19 19 19 19 20 20 20 20 21 21 22 22 22 22 23 23 23 23 23
19 19 19 19 20 20 20 20 20 20 20 20 19 19 19 19 19 19 19 19 19 19 19 20 20 20 20 20 21 22 22 22 22 23 23 23 23 23
19 19 19 19 19 20 20 20 19 19 19 19 19 19 19 19 19 19 19 19 19 19 19 19 20 20 20 20 21 22 22 23 23 23 23 23 23 23
18 19 19 19 19 19 19 19 19 18 18 18 18 17 17 17 17 17 18 18 18 18 19 19 19 19 20 20 21 22 22 22 23 23 23 23 23 23
18 18 18 18 18 19 19 19 18 18 17 17 16 16 16 16 16 16 16 16 17 17 18 18 18 19 19 20 20 21 21 22 22 22 23 23 23 23
17 17 17 17 18 18 18 18 18 17 16 16 15 15 15 15 15 15 15 15 16 16 17 17 18 18 19 20 20 21 21 21 22 22 22 22 22 23